Вернуться в каталог

CBERS 2B

АктивенНаукаSSO
NORAD 32062·PAYLOAD·🇧🇷 Brazil🇨🇳 China

Запущен Sep 19, 2007 с Taiyuan Satellite Launch Center

Loading…

Ближайшие Пролёты (ближайшие 24 часа)

TLE

СвежийSource: Space-Track

Эпоха: Sep 14, 2026, 18:36 UTC

1 32062U 07042A   26257.77525469  .00000190  00000-0  71267-4 0  9990
2 32062  98.3987 200.8867 0032169  65.9170 307.6013 14.41512092997597

Отслеживайте CBERS 2B в реальном времени с AllMySat

Download on the App Store